Theta_e
301 301 300 299 298 298 298 299 300 300 301 301 301 304 309 310 310 311 308 306 306 308 309 309 310 309 309 309 309 309 310 310 310 309 310 309 306 306 306 305 305 306 307 307 308 306 306 306 305 304 304 304 306 307 307 308 308 308 308 308 309 311 311 310 309 310 310 311 311 312 313 312 312 312 313 313 314 314 315 316 316 315 314 314 314 314 317
301 301 300 299 298 298 298 299 300 300 301 300 301 305 309 309 309 311 309 307 307 309 308 307 308 307 307 309 309 310 310 310 310 309 309 310 307 305 306 305 304 306 307 308 308 307 307 306 305 304 304 305 306 307 308 308 307 308 309 309 310 311 311 310 310 310 310 311 311 312 312 312 312 312 313 313 314 315 316 316 316 315 314 315 315 314 317
301 300 300 299 299 298 298 299 299 300 300 300 302 306 308 309 310 309 309 308 307 308 308 308 307 306 307 308 309 310 310 310 310 309 308 310 308 305 306 306 304 305 307 308 308 308 307 306 304 304 304 305 306 307 308 308 308 309 310 310 310 311 312 311 310 310 310 310 311 312 312 312 312 312 313 313 314 314 315 315 314 314 315 315 315 315 317
300 300 299 299 299 298 298 298 299 300 300 301 304 307 308 309 308 307 308 309 308 308 309 309 308 306 306 308 308 309 310 309 309 308 308 310 309 306 305 306 305 305 307 308 308 308 308 307 305 304 305 306 306 307 307 308 308 309 310 310 310 311 312 313 313 311 311 311 311 311 312 312 312 313 312 313 314 314 315 314 313 315 315 314 315 317 318
300 300 299 299 299 298 298 298 298 299 300 301 305 307 308 307 307 307 306 306 307 308 308 308 307 306 307 308 309 309 309 309 309 308 309 309 310 308 306 305 306 307 308 308 309 309 308 308 306 305 306 306 306 306 307 308 308 309 309 310 310 312 312 313 314 314 313 312 312 312 312 313 312 313 313 313 314 314 315 314 314 316 315 314 316 319 318
300 300 299 299 299 298 298 297 297 298 300 302 304 307 308 305 305 307 306 305 307 307 307 308 308 307 309 309 308 308 308 309 309 308 309 310 310 311 308 306 307 307 307 309 310 310 308 308 307 307 307 307 306 307 307 308 308 308 309 310 311 312 312 312 314 315 313 313 313 312 312 312 312 313 314 314 314 314 315 315 316 317 315 315 318 320 319
300 299 299 299 299 298 298 297 297 298 300 302 303 305 306 304 304 306 305 304 306 307 307 308 308 308 309 308 307 308 308 308 308 308 309 310 311 312 310 309 309 309 308 309 310 310 308 307 308 310 309 307 307 307 307 308 309 308 309 311 312 312 313 314 315 315 314 313 313 313 312 312 313 313 313 314 314 314 315 315 316 317 317 317 318 319 319
300 300 300 299 299 298 297 297 297 297 299 303 303 303 303 303 303 304 303 303 306 307 308 308 308 308 308 306 307 308 308 308 308 308 309 309 310 311 311 310 311 311 310 310 310 311 310 310 310 311 311 309 308 308 308 308 309 308 309 311 313 313 313 315 315 314 314 314 313 313 313 313 313 313 313 314 314 314 315 315 316 317 317 317 318 318 319
300 300 300 299 298 298 297 297 297 297 299 302 303 301 301 301 301 301 301 303 306 307 308 308 308 307 306 306 307 307 307 307 307 308 309 309 309 311 311 311 312 312 311 312 313 313 314 313 313 312 312 311 310 309 309 309 309 309 310 312 314 314 314 315 315 314 314 315 315 315 315 314 314 314 314 314 314 315 315 315 316 317 316 317 317 316 318
300 300 300 299 299 298 298 297 297 298 299 301 302 301 300 300 301 301 301 303 305 306 307 308 307 306 306 307 306 306 307 307 308 308 309 310 310 311 312 313 314 312 312 314 314 315 314 313 313 314 313 313 312 311 311 311 310 310 310 312 314 315 315 315 317 316 316 317 318 317 316 315 315 315 315 316 315 315 316 315 316 317 317 317 316 316 319
300 300 300 300 299 299 298 298 297 298 299 300 301 300 300 300 300 301 301 302 304 306 306 306 306 306 307 307 306 306 307 307 308 308 309 309 310 311 313 314 314 314 314 314 315 315 314 313 313 314 314 314 314 313 313 312 311 310 311 312 314 315 315 316 317 317 317 319 319 318 316 315 316 316 316 317 316 315 316 316 316 316 316 317 317 318 320
300 300 300 300 300 300 299 298 298 298 299 300 301 300 300 299 299 301 301 302 303 305 305 305 306 306 306 306 306 307 307 307 308 308 309 309 310 311 313 314 314 313 313 314 315 315 314 313 313 314 314 314 314 313 312 312 311 310 312 313 314 315 314 315 316 316 317 318 318 317 316 316 318 318 316 317 316 316 316 316 316 316 316 317 317 317 318
301 301 300 300 300 300 300 299 299 299 299 299 301 301 300 299 299 300 301 301 302 304 304 305 306 306 305 305 306 307 307 307 307 308 309 310 311 312 312 312 313 313 313 314 316 316 314 313 313 313 312 312 312 311 311 311 311 310 312 313 314 315 314 315 316 316 317 317 315 316 317 318 320 319 317 317 317 316 316 316 316 316 316 316 316 316 317
301 301 300 300 300 300 300 299 299 299 299 299 300 301 300 300 300 299 300 300 301 303 304 304 305 305 304 305 306 306 307 307 307 308 309 310 311 312 312 311 311 313 314 315 317 316 315 313 312 312 311 310 311 311 311 311 311 311 312 312 314 315 315 316 317 316 317 316 315 316 316 317 319 319 318 317 318 317 316 316 316 317 317 317 316 317 317
300 301 300 300 300 300 299 299 299 299 299 299 300 301 301 300 300 299 299 300 300 302 303 303 303 303 304 305 306 306 306 306 306 307 309 310 311 311 311 311 311 314 316 316 316 315 314 312 311 311 310 310 311 311 311 312 312 312 312 313 314 315 315 316 317 317 316 316 317 316 315 316 319 321 320 320 321 321 318 316 316 317 317 317 317 317 317
300 300 300 300 300 300 299 299 299 300 299 299 300 301 301 301 300 300 300 299 299 301 303 303 302 303 303 304 305 305 305 304 304 306 308 309 310 311 310 309 311 314 316 316 316 315 314 312 311 311 311 311 312 312 312 313 313 313 313 314 316 316 315 315 316 317 316 317 317 316 316 320 323 324 323 323 323 322 320 316 315 317 317 318 317 317 317
299 300 300 300 300 300 299 298 299 300 300 299 299 301 301 301 301 300 300 300 300 301 302 302 302 302 303 303 304 304 304 304 304 305 306 307 309 310 309 309 311 314 315 316 317 316 314 313 312 312 312 314 315 314 313 313 315 315 316 316 317 317 316 316 316 317 317 317 317 316 318 322 324 324 324 323 321 321 319 315 315 318 319 317 317 317 318
299 300 300 300 300 300 299 298 299 300 299 299 299 300 301 301 300 300 300 300 300 301 302 302 302 302 302 302 302 303 304 304 304 305 305 306 308 308 307 308 311 312 314 315 315 315 315 315 315 315 315 316 316 316 315 315 316 317 317 317 317 317 316 316 317 317 317 317 316 316 319 323 323 324 324 323 321 320 318 317 321 327 326 320 317 317 318
299 300 300 300 300 300 299 299 299 299 299 298 299 300 301 301 300 300 300 301 301 301 302 302 302 302 302 302 302 303 304 304 304 303 303 305 307 306 307 310 311 311 313 314 314 314 315 316 317 317 316 317 317 316 316 316 316 317 317 317 317 317 317 317 317 317 317 317 316 316 319 322 324 324 322 321 320 319 319 323 328 330 330 328 325 322 320
299 300 300 300 300 300 300 299 299 298 298 298 299 300 300 301 301 300 300 301 301 301 302 302 302 302 302 302 302 303 304 304 303 302 303 304 305 305 308 310 309 310 312 313 313 314 314 315 316 316 317 317 318 317 317 316 316 316 317 317 318 318 317 317 317 317 317 317 317 317 319 322 325 324 321 320 322 322 324 329 330 327 329 331 329 327 327
299 300 300 300 300 300 300 300 299 298 298 298 298 299 300 301 301 301 301 301 301 301 302 302 302 302 302 302 302 302 303 303 303 302 303 304 304 305 307 308 308 309 311 311 312 313 313 313 315 315 316 317 317 317 318 317 316 315 316 317 318 318 317 317 317 317 317 317 318 318 320 323 325 325 323 324 325 326 328 330 329 328 329 330 329 330 330
299 299 300 300 300 300 300 300 299 298 298 298 298 299 300 301 301 301 301 301 301 301 301 302 301 301 302 302 302 302 302 302 302 302 302 303 303 304 305 307 308 310 310 311 311 311 311 311 312 313 315 316 316 317 318 317 316 317 318 317 317 318 318 318 317 317 317 317 319 320 322 324 326 325 326 328 327 327 329 330 329 329 330 330 331 332 332
299 299 300 300 300 300 300 300 299 299 299 299 298 299 300 300 300 300 301 301 301 301 301 301 302 302 303 304 303 302 302 302 302 302 302 302 303 304 305 307 308 309 310 311 310 310 310 310 310 311 314 315 316 316 317 316 317 318 319 317 317 318 320 319 318 318 318 319 320 320 321 324 326 325 327 328 327 327 327 327 328 329 329 330 332 333 334
300 300 300 300 300 300 300 300 300 299 299 299 298 299 300 300 300 300 300 301 301 301 301 302 303 303 304 304 303 302 302 302 302 302 302 302 302 303 304 306 307 307 309 310 309 308 309 309 309 311 313 315 316 316 317 317 318 318 318 318 319 320 320 319 319 319 319 319 320 321 321 323 325 326 326 326 325 325 326 326 328 328 329 331 332 332 333
300 300 300 300 300 300 300 300 300 299 299 298 298 299 299 300 300 300 300 300 301 301 301 302 302 303 303 303 303 302 302 302 302 302 302 302 302 302 303 304 304 304 306 306 306 307 308 308 308 310 312 314 316 317 316 316 317 317 317 318 319 320 320 318 319 320 320 320 322 322 321 323 324 324 324 324 324 325 326 326 327 327 327 329 331 332 332
300 300 300 300 300 300 300 300 300 299 298 298 299 299 299 300 300 300 300 300 300 301 301 301 302 303 303 302 302 302 302 302 302 302 302 302 302 302 303 303 303 304 305 305 306 307 307 307 308 309 310 313 315 316 316 316 316 317 317 318 319 319 319 318 318 319 320 321 322 323 322 322 323 323 323 324 324 324 324 325 326 326 326 326 328 330 332
300 300 300 300 300 300 300 300 299 298 298 298 299 299 299 299 299 299 300 300 300 301 301 302 302 302 301 301 302 302 302 302 302 302 302 302 303 303 303 303 304 304 305 306 306 307 308 308 308 309 311 312 314 314 315 316 317 317 318 319 319 318 318 319 319 319 319 319 321 322 322 322 322 323 323 323 324 323 323 323 324 324 325 325 325 327 329
300 300 300 300 300 300 300 299 299 298 298 298 298 299 299 299 299 299 300 300 300 301 301 301 301 300 300 302 303 302 302 302 302 303 303 303 303 303 303 303 304 305 306 306 307 307 307 308 309 310 311 312 314 314 315 316 316 316 317 318 318 318 319 319 320 320 320 319 320 320 321 322 322 322 322 322 324 324 322 322 322 323 324 325 325 325 326
300 300 300 300 300 299 299 298 298 298 298 298 298 299 300 300 300 300 300 300 300 300 300 299 299 300 301 302 302 302 302 303 303 303 303 303 304 304 304 304 304 305 306 307 307 307 308 308 308 309 309 311 312 313 313 314 315 315 316 318 318 318 319 319 319 320 321 321 320 319 320 321 322 321 321 321 322 323 323 323 322 322 322 323 324 324 325
300 300 300 300 299 299 298 298 298 298 297 297 298 299 300 301 301 300 300 300 299 299 299 299 299 300 300 301 301 302 303 303 303 303 304 304 304 305 305 305 305 305 305 306 307 308 308 308 308 308 309 310 311 312 312 313 314 315 316 317 317 317 318 318 318 319 320 321 321 320 320 320 321 322 322 322 321 322 323 324 323 322 321 322 322 323 324
300 300 299 299 299 299 298 298 298 297 297 297 298 300 301 302 302 300 299 299 299 299 299 299 299 300 300 301 302 302 303 303 303 304 304 305 305 305 305 306 306 306 306 307 308 308 308 308 309 309 310 311 312 312 312 313 313 314 316 317 317 317 318 317 318 320 321 321 321 321 321 322 322 322 322 323 322 322 323 323 322 322 321 321 321 321 322
300 299 299 299 299 299 298 298 298 297 297 298 299 299 299 300 300 299 299 298 298 298 299 299 299 299 300 301 301 302 303 303 304 304 305 305 305 306 306 306 306 306 306 307 308 308 308 309 309 309 310 311 312 312 312 312 313 314 315 316 316 316 317 317 317 320 321 321 321 322 322 321 321 321 322 323 323 323 323 322 321 321 321 321 322 321 321
299 299 299 299 299 299 298 298 297 296 297 297 297 297 297 298 298 297 297 298 298 298 298 299 299 299 300 301 301 302 303 304 304 305 305 305 305 306 306 306 306 307 307 307 307 308 308 309 309 310 310 310 311 312 312 312 313 314 314 315 315 316 317 317 316 318 319 321 322 322 321 322 322 322 322 322 322 322 322 321 321 321 321 321 322 322 322
299 299 299 299 299 299 299 297 296 296 297 297 298 298 299 299 298 297 297 298 299 299 298 298 299 299 299 300 301 302 303 303 304 305 305 305 305 306 305 305 306 307 307 308 308 308 308 309 309 310 310 310 311 312 312 312 313 314 314 314 314 315 316 316 316 318 320 321 322 322 321 322 323 322 321 321 321 321 320 320 320 320 320 321 322 322 322
299 300 300 300 300 299 298 297 296 297 298 298 299 299 299 298 298 298 298 299 299 299 299 299 299 299 299 300 301 302 302 303 304 305 305 305 305 305 305 306 306 307 307 308 309 309 308 309 309 309 310 310 311 311 311 312 313 313 313 313 314 315 315 315 316 319 320 321 321 321 321 321 321 321 321 321 320 320 320 320 319 320 320 321 322 322 322
300 300 300 300 299 298 298 298 298 299 299 299 299 299 298 297 297 298 298 298 299 299 300 300 299 299 300 300 301 302 302 303 304 304 304 305 305 305 305 305 305 306 307 308 309 309 309 309 309 309 309 310 310 311 312 313 313 312 313 313 314 314 315 315 317 319 320 320 320 320 320 320 321 321 321 320 320 320 320 319 318 319 320 321 321 322 322
300 300 300 299 299 299 299 299 299 299 299 299 299 298 297 297 297 298 298 299 298 299 299 299 299 300 300 301 301 302 302 303 303 304 304 305 305 305 305 305 305 306 307 308 308 309 309 310 309 309 309 310 310 311 311 312 312 312 312 313 313 314 314 315 317 319 319 319 320 320 320 320 321 321 320 320 319 319 319 318 318 319 320 321 320 321 321
300 299 299 299 299 299 299 299 300 299 298 297 297 297 298 298 298 299 299 299 298 299 299 299 299 300 301 301 302 302 302 303 303 304 304 304 304 304 305 305 305 305 306 306 307 308 308 309 309 309 309 310 311 311 311 312 312 312 312 312 313 313 314 314 316 318 318 318 318 319 319 320 320 320 319 319 318 318 318 318 318 319 319 319 319 319 320
299 299 299 299 299 299 299 300 299 298 297 297 297 298 299 299 299 299 299 299 299 299 299 299 300 301 302 302 302 302 302 303 303 303 303 303 303 304 304 305 305 305 305 306 307 308 308 308 309 309 309 310 311 311 311 311 311 311 312 312 312 313 314 314 316 317 318 318 318 318 319 319 320 319 318 318 318 317 317 317 318 318 318 318 318 317 317
299 299 299 299 299 298 298 298 298 297 297 298 299 299 299 299 299 299 300 300 300 300 300 301 301 302 302 302 302 302 302 302 303 303 303 303 303 304 304 304 305 305 305 305 307 308 307 307 308 308 308 309 310 311 310 310 311 311 311 312 312 312 313 314 315 316 318 319 318 318 318 318 318 318 318 317 317 317 317 317 317 317 316 316 316 315 315
299 299 298 298 298 298 298 298 297 298 298 299 298 298 299 299 299 300 300 299 300 301 301 302 302 303 302 302 302 302 302 302 302 303 303 303 303 303 304 304 304 304 304 306 307 307 307 307 307 308 308 309 310 310 310 310 311 311 311 311 312 313 312 313 314 316 317 318 318 317 317 316 317 317 317 317 317 317 317 317 317 316 315 315 314 314 314
298 298 298 297 297 297 297 298 298 298 298 298 298 298 299 299 300 300 300 300 300 301 302 302 302 302 302 301 301 302 302 302 302 302 302 302 303 303 303 304 304 304 305 306 306 306 306 306 307 307 309 310 310 309 309 310 310 310 311 313 314 314 313 313 314 315 317 318 318 317 317 316 316 315 315 316 316 316 317 317 316 316 315 314 314 314 314
297 297 297 297 297 297 298 298 299 298 298 298 298 298 299 299 299 300 300 301 301 301 301 301 301 301 301 301 301 301 301 301 301 302 302 302 303 303 303 303 304 304 305 306 305 306 306 306 307 308 309 310 310 310 310 310 310 311 314 316 316 314 313 313 315 317 318 318 317 317 316 316 315 315 315 316 316 316 317 317 316 315 314 314 314 313 313
296 296 297 297 297 298 298 298 298 298 298 298 299 299 300 300 300 300 300 300 301 301 300 300 300 300 300 300 300 301 300 301 301 302 302 302 302 303 303 303 304 305 305 305 305 306 306 307 308 309 309 309 310 310 310 311 311 312 315 317 316 315 314 315 317 318 317 316 316 315 315 316 316 316 316 317 317 317 317 316 315 314 314 313 313 312 311
297 297 297 297 297 297 297 298 298 299 299 299 299 300 300 300 300 301 300 300 300 300 300 300 300 300 300 300 300 300 301 301 301 302 302 302 302 303 303 304 304 305 305 305 305 306 306 307 308 309 309 309 310 310 310 312 312 313 314 317 318 317 317 318 318 317 316 315 315 315 314 315 316 317 317 317 317 316 315 314 314 313 313 313 313 312 311
297 297 298 297 297 297 297 298 298 299 300 300 300 300 301 300 300 300 300 299 299 299 300 299 299 300 300 300 300 300 301 301 301 301 302 302 303 303 304 304 305 305 305 306 306 306 306 307 308 309 309 309 309 309 310 312 313 312 314 317 318 317 317 317 316 315 314 314 315 314 314 314 316 316 316 316 315 315 314 314 313 313 313 313 312 312 312
296 297 297 297 297 297 298 299 299 300 300 300 301 300 300 300 300 299 299 299 299 299 299 299 299 299 300 300 300 300 301 301 301 302 302 302 302 303 304 304 304 304 305 306 306 307 307 308 308 308 308 309 309 309 311 312 313 312 313 316 317 316 316 314 312 311 312 313 313 313 314 315 316 316 315 315 314 314 313 313 313 313 312 312 311 311 311
297 297 297 297 298 298 299 299 300 300 300 300 300 300 299 299 299 299 299 299 299 299 299 299 299 299 299 300 300 300 301 301 301 302 302 302 302 303 304 305 305 305 305 306 306 307 308 307 307 306 307 308 309 310 310 312 313 313 313 315 316 316 316 315 313 311 312 312 313 313 314 315 315 315 314 314 313 313 312 312 312 311 311 310 310 310 310
296 297 297 297 298 299 299 299 300 300 300 300 299 299 299 299 299 299 299 298 298 298 299 299 299 299 299 300 300 300 301 301 302 302 303 303 303 304 304 305 305 306 306 306 306 307 307 306 305 306 307 308 309 309 310 311 312 312 313 315 316 316 316 316 315 313 313 313 313 314 314 314 314 313 313 312 312 312 311 311 310 310 309 309 309 309 309
296 297 297 297 298 299 299 299 299 299 299 300 299 299 299 299 299 299 299 298 298 298 298 299 299 299 299 300 300 300 301 302 302 302 302 303 303 304 305 305 306 306 307 306 306 306 306 305 305 306 307 308 309 309 309 310 311 312 312 314 315 315 315 314 313 313 313 313 313 313 313 312 312 311 311 311 310 310 310 309 309 309 309 309 309 309 309
296 296 297 297 298 299 299 299 298 299 299 299 299 299 299 299 299 299 298 298 298 298 298 299 299 299 299 299 300 300 301 302 301 301 302 302 303 304 304 305 305 306 306 305 304 304 305 305 305 306 307 308 308 308 308 309 311 311 312 312 312 312 313 313 313 312 313 313 313 312 311 311 310 310 310 310 309 309 309 309 309 309 309 309 309 309 309
296 297 297 297 298 298 298 299 299 299 299 299 299 299 299 299 298 298 298 298 298 298 299 299 299 298 299 299 300 300 301 301 301 302 302 302 303 304 304 305 305 305 304 304 303 303 303 304 305 306 307 307 308 308 308 309 310 311 311 312 312 312 312 313 313 313 313 312 311 311 310 309 309 309 309 309 309 309 309 309 309 309 309 309 309 309 309
Wind_Speed
18 20 21 22 23 23 22 21 22 23 23 23 22 15 8 9 6 3 10 12 5 5 7 6 4 4 11 16 17 17 15 13 16 19 12 4 1 3 3 3 4 5 6 8 8 6 4 3 1 2 5 4 0 4 11 11 10 7 5 7 7 2 3 8 9 8 11 14 16 16 17 18 14 12 13 14 14 13 10 8 8 8 10 11 9 8 5
19 20 21 22 23 23 22 21 21 21 21 22 20 13 9 10 7 4 8 9 5 5 7 8 6 9 14 17 18 17 13 13 16 17 14 7 1 2 4 2 3 5 6 8 9 8 4 2 0 2 5 4 3 7 13 10 8 5 3 3 4 2 4 7 9 8 10 12 13 13 14 13 10 11 14 16 18 18 12 8 6 7 10 9 7 7 6
19 20 21 22 22 24 22 21 20 19 19 19 15 10 11 11 7 4 5 4 4 6 6 7 8 11 15 16 16 16 13 15 17 16 14 9 2 3 4 3 3 5 8 9 10 8 2 1 2 3 4 4 4 8 12 10 10 7 4 8 3 0 5 3 6 8 9 9 9 10 10 10 9 13 17 17 18 18 13 8 7 8 10 10 6 5 7
19 20 21 22 23 24 23 21 20 18 18 19 13 8 10 10 5 7 7 5 7 10 9 7 8 11 13 13 14 15 15 15 17 14 12 10 2 5 4 3 2 4 6 7 9 6 4 2 2 4 4 3 5 9 11 12 12 5 2 8 6 2 4 4 2 3 7 10 12 13 12 11 12 17 19 17 17 18 15 9 8 8 9 10 7 4 8
18 19 21 22 23 24 24 23 21 18 15 16 14 8 9 8 4 6 9 7 7 8 7 8 10 12 12 10 11 17 17 15 15 12 9 12 9 2 6 2 2 3 4 5 7 5 4 2 3 5 5 3 7 10 12 13 11 3 2 8 7 3 3 3 3 6 5 5 11 18 17 14 14 17 19 19 19 19 17 13 11 9 7 9 9 7 8
17 19 20 22 23 24 25 24 23 19 14 15 15 10 7 7 6 6 8 6 6 7 11 13 13 14 13 10 11 17 18 16 15 12 10 12 12 5 2 4 5 7 6 5 5 4 4 3 4 4 4 4 8 10 10 11 11 7 7 8 5 4 4 4 4 6 4 3 3 13 17 16 16 16 17 19 20 19 18 16 14 11 8 9 11 10 8
16 18 19 21 23 24 24 24 24 21 16 16 15 10 8 8 7 6 8 8 11 13 14 15 15 13 10 8 11 15 17 17 15 12 12 13 12 10 7 6 4 5 9 6 4 4 3 4 6 5 4 5 7 8 8 9 11 10 8 7 5 5 4 3 5 5 4 4 5 8 13 15 17 18 17 18 19 18 17 16 14 14 11 8 9 11 10
16 17 18 20 22 22 23 24 24 22 17 14 14 12 11 9 7 8 11 12 14 15 15 14 12 10 9 8 11 14 16 18 16 15 14 14 12 13 12 15 14 5 7 7 6 5 2 1 5 5 5 6 5 6 5 6 8 9 7 5 4 3 3 4 4 3 5 8 8 8 10 12 14 17 18 18 19 17 17 16 14 13 13 11 11 11 12
15 16 17 19 20 21 21 22 24 23 18 14 12 12 11 9 6 8 11 11 11 13 13 13 10 7 8 10 12 14 17 19 19 17 13 12 13 15 16 19 14 2 7 6 6 8 7 6 4 5 7 6 4 4 3 3 6 8 7 4 2 3 4 5 4 4 4 7 7 8 9 9 12 15 17 18 18 16 15 15 14 14 14 14 14 11 9
14 14 16 18 19 19 20 21 22 22 19 14 11 12 12 11 8 8 9 9 11 12 11 10 9 7 9 13 14 15 18 21 20 14 9 11 16 17 18 18 11 1 3 4 7 9 10 10 7 6 8 9 7 6 5 5 5 6 5 4 3 4 5 3 3 3 3 5 5 6 8 9 10 12 15 16 17 16 15 16 16 17 15 12 11 10 7
14 14 14 16 17 17 18 18 20 20 17 13 11 11 12 12 10 12 11 7 10 13 10 8 9 9 13 18 19 17 19 21 20 14 9 14 20 20 19 17 11 4 6 11 10 9 9 10 9 8 9 11 11 8 7 8 6 7 6 4 4 5 6 4 3 3 4 4 3 3 7 8 6 8 14 16 15 16 16 15 16 17 14 11 10 13 12
13 13 13 14 16 16 16 16 17 17 15 12 9 8 10 11 11 12 11 6 9 11 9 8 11 14 18 21 20 18 19 21 21 19 15 15 18 19 19 16 12 10 13 15 10 4 6 8 9 10 11 11 11 10 10 9 6 9 8 5 4 5 5 4 5 4 5 5 3 4 7 5 1 3 10 15 15 15 15 14 15 16 16 15 15 17 16
12 12 12 13 14 15 15 14 14 15 15 12 9 8 10 11 10 12 11 8 7 8 9 11 15 18 21 22 21 20 21 22 22 20 16 13 13 16 17 16 15 15 17 15 9 3 6 7 6 8 9 9 9 10 11 10 7 9 8 4 3 4 4 5 6 6 5 4 4 4 1 3 3 1 5 11 14 15 13 12 14 16 16 17 18 18 16
13 11 11 11 13 14 14 12 12 14 15 12 9 9 10 9 9 11 11 7 7 13 15 11 13 19 22 23 21 19 20 21 20 18 16 13 12 15 17 18 18 18 17 13 8 4 4 5 5 5 6 6 6 7 8 8 7 7 7 4 1 2 3 4 5 5 5 4 3 4 3 1 4 2 3 6 8 12 12 10 11 14 15 16 17 17 15
14 11 10 11 12 13 13 11 10 12 14 13 10 8 8 8 9 9 10 8 9 13 12 9 13 20 22 21 19 16 14 14 15 17 17 14 14 15 17 20 20 18 15 10 5 3 4 4 5 5 5 6 5 5 6 6 6 7 7 4 2 3 2 4 4 5 6 5 4 5 5 2 3 3 1 1 3 5 9 9 8 11 15 17 17 16 15
15 13 11 11 11 11 13 11 9 10 13 14 11 7 7 11 10 8 9 9 7 7 10 14 18 21 19 17 17 15 11 10 12 13 11 13 17 19 20 22 20 16 14 9 3 3 5 6 4 4 5 6 5 5 5 5 5 6 7 5 3 3 3 5 5 6 6 5 5 4 1 1 2 3 2 2 3 2 6 8 8 10 15 18 17 15 15
17 14 12 11 9 10 12 12 9 10 12 12 10 8 8 11 11 9 9 10 10 13 15 16 18 18 15 12 13 14 12 11 12 9 8 13 18 20 23 25 20 15 15 7 2 2 4 7 5 3 4 5 5 4 5 5 5 6 7 6 6 6 4 5 6 6 6 5 6 3 2 2 3 6 4 1 2 4 6 7 5 5 12 18 18 14 13
19 15 13 11 8 9 12 11 8 10 11 11 9 8 9 12 12 10 9 12 13 13 13 14 17 18 14 11 13 15 14 14 12 9 10 13 13 19 27 23 13 14 16 9 2 3 5 6 4 2 3 5 3 3 4 5 6 6 6 6 6 6 5 5 6 6 6 6 6 3 2 3 4 8 5 0 4 7 8 5 2 6 5 11 15 15 15
19 16 13 11 9 9 11 10 9 11 12 12 11 9 8 11 13 11 10 11 13 16 19 19 18 17 14 14 16 16 14 14 12 10 9 8 14 26 27 14 6 12 13 8 5 5 4 6 5 1 1 4 4 3 2 4 5 4 6 7 6 5 5 5 6 6 6 5 5 3 2 3 7 9 4 3 5 6 3 2 7 10 8 3 3 8 11
19 16 13 11 10 9 10 10 11 12 13 12 12 10 8 9 12 12 11 11 15 22 24 18 13 15 16 16 17 17 15 14 13 11 8 8 17 26 17 4 8 14 10 7 8 5 4 7 7 3 2 2 3 5 3 3 6 5 5 5 4 2 3 5 5 4 5 5 5 4 1 2 9 10 2 3 1 2 5 7 7 6 5 4 2 2 5
18 15 13 11 10 9 10 11 12 13 13 12 12 12 11 8 9 12 13 14 16 20 19 14 15 20 21 19 20 20 17 16 16 15 13 14 16 14 7 6 11 10 6 6 7 4 5 7 5 4 4 4 3 4 2 3 6 7 5 3 1 2 2 4 3 3 3 3 3 2 1 4 9 8 3 2 4 6 8 8 5 6 5 1 3 3 4
17 14 12 11 11 10 10 11 12 12 12 13 13 13 12 9 9 10 13 15 17 20 22 24 26 27 23 18 18 18 17 18 18 15 15 17 15 11 10 12 13 8 6 7 6 4 5 7 5 6 6 5 4 5 5 4 3 2 2 2 2 3 3 2 2 3 4 5 4 1 1 2 5 5 5 6 5 4 7 7 5 6 7 3 3 5 5
16 13 12 11 11 11 11 12 12 12 13 15 15 13 11 11 10 10 13 16 19 23 26 27 25 23 19 14 12 13 15 16 16 14 13 15 14 13 13 12 10 8 5 5 6 7 7 6 6 7 6 4 4 7 7 4 1 2 4 4 3 4 5 2 2 4 5 5 6 4 1 2 4 4 4 7 7 6 8 9 7 7 8 6 6 7 7
15 13 12 12 11 11 12 12 12 13 15 17 16 12 11 11 10 10 13 15 17 20 21 17 16 16 15 13 10 11 13 15 16 15 14 13 12 12 11 8 10 10 9 7 10 12 10 8 7 7 6 5 4 5 5 2 1 3 5 5 3 3 4 3 4 6 4 2 2 2 2 2 3 4 5 7 10 9 9 9 10 9 10 10 9 8 7
14 12 12 12 11 11 12 12 13 15 17 17 14 11 11 11 9 10 12 14 16 16 13 13 16 15 13 14 16 16 15 14 15 15 15 17 17 16 16 15 15 14 15 16 15 13 12 8 7 7 7 7 5 3 2 2 5 6 5 4 2 0 2 4 4 5 3 2 2 2 2 2 4 6 7 8 9 9 9 10 12 12 12 13 12 10 8
14 12 12 12 11 12 12 12 14 17 18 17 14 12 12 12 10 10 11 14 17 16 12 13 16 14 14 21 22 18 14 12 13 14 16 18 21 22 24 24 20 17 17 16 14 14 12 8 6 7 7 6 5 5 4 6 7 8 7 6 7 7 7 6 5 4 1 5 3 1 3 1 2 4 6 8 9 8 9 10 12 13 15 15 15 14 12
13 11 11 11 11 12 12 14 17 18 17 17 16 14 13 13 11 10 10 11 12 11 10 12 17 20 24 24 18 12 12 13 13 15 16 17 20 22 24 24 21 19 17 15 14 13 12 8 7 8 9 9 9 8 8 8 7 7 7 7 7 8 7 7 6 4 1 3 5 3 1 1 1 2 4 6 7 8 9 11 12 12 13 14 15 14 14
12 11 11 11 11 12 14 16 17 17 17 17 16 13 13 14 12 10 10 10 10 10 13 19 24 27 25 19 13 12 14 15 14 15 16 17 18 20 22 23 22 20 17 14 12 10 8 8 8 9 9 10 9 7 9 9 6 5 7 6 4 3 4 5 7 4 1 2 4 4 3 3 3 4 6 7 7 7 9 11 12 12 11 11 12 12 13
12 11 10 11 12 14 15 16 15 15 17 17 14 13 13 12 9 8 8 8 8 10 17 22 22 18 17 18 20 19 16 14 14 16 17 18 19 20 20 22 22 20 17 16 13 10 9 11 12 12 11 10 8 6 8 8 6 6 7 7 8 8 8 10 10 8 1 5 7 5 4 5 2 1 4 6 8 6 8 11 11 11 10 10 9 9 9
11 10 10 12 14 14 14 14 13 15 17 14 10 11 11 7 6 7 6 6 5 8 14 15 13 13 18 23 23 19 15 14 15 16 17 18 18 18 19 20 20 19 18 17 14 12 11 12 13 15 16 14 9 6 6 7 7 7 6 3 6 11 14 12 10 9 5 1 5 5 5 7 4 3 2 3 7 4 6 10 9 9 9 8 8 7 6
10 11 12 13 13 12 12 14 15 16 15 10 6 8 7 3 3 4 6 7 6 10 12 12 15 19 20 19 17 17 16 16 15 16 17 16 15 16 16 16 16 17 17 17 16 15 13 12 11 13 15 14 9 6 7 8 7 8 8 4 2 7 11 11 9 8 7 5 1 5 6 6 6 5 4 2 2 1 4 7 8 8 8 7 7 8 6
10 11 12 11 11 12 13 15 16 15 12 8 9 12 12 8 7 9 9 10 11 12 10 10 12 12 11 11 16 18 16 13 14 15 14 12 12 13 13 14 15 16 16 15 14 12 13 14 13 14 15 13 8 6 8 9 8 9 12 11 8 7 9 10 10 9 7 6 3 4 7 8 9 7 5 2 2 2 4 6 5 5 5 5 5 6 5
10 10 10 11 12 13 14 16 17 15 13 12 15 16 14 11 10 12 12 12 13 12 9 7 7 7 7 14 19 16 11 11 14 14 11 9 9 10 12 14 15 15 14 13 11 9 11 14 13 12 15 15 10 6 7 9 11 13 15 14 12 11 11 11 10 9 8 6 3 2 4 6 8 8 6 4 4 3 3 4 4 3 4 4 3 3 3
9 10 11 12 13 14 16 17 16 14 13 12 12 12 12 12 11 10 9 9 9 9 7 5 5 7 9 13 14 9 10 14 15 12 10 10 10 11 13 14 12 11 12 14 14 12 11 12 11 10 11 13 11 7 7 11 15 17 17 14 12 12 13 12 10 8 6 5 4 3 4 3 4 6 7 6 5 3 2 3 3 4 5 4 3 2 3
11 12 13 13 15 16 18 17 12 10 11 10 10 12 14 14 10 6 5 7 7 7 6 5 6 7 8 9 8 8 13 15 14 12 12 13 13 13 13 11 9 9 10 12 13 11 9 10 12 10 8 9 9 8 8 11 15 17 16 14 13 12 12 11 8 4 4 6 6 6 4 4 5 6 6 7 5 3 2 3 3 3 4 5 4 3 3
12 13 15 16 16 15 15 12 9 7 8 9 10 11 11 9 7 6 7 9 10 9 8 7 7 6 7 7 7 9 13 13 12 13 14 13 11 12 12 9 8 9 9 9 9 9 10 12 11 8 7 8 8 9 10 12 14 16 15 15 13 12 10 8 4 4 5 7 7 7 7 6 6 5 5 5 5 3 2 2 2 2 3 5 5 5 4
13 15 15 14 11 10 10 9 9 9 9 10 11 11 9 8 8 8 8 10 11 12 12 10 8 8 9 8 8 9 9 10 11 12 11 10 10 11 11 9 6 7 8 8 7 9 12 13 11 8 8 9 11 13 15 14 15 16 16 15 13 11 10 7 4 8 5 7 9 9 8 6 6 5 4 5 5 4 3 2 2 3 4 6 6 6 6
14 15 12 8 7 8 9 7 9 12 11 8 7 8 7 6 6 7 8 8 8 10 11 10 10 12 12 9 8 9 9 9 10 9 8 9 9 8 9 7 5 5 6 7 8 9 10 10 8 7 9 12 16 19 18 16 17 18 16 15 14 12 11 9 6 9 8 8 10 10 8 6 6 5 4 4 4 4 4 3 4 5 6 6 6 7 7
13 10 6 5 6 7 6 7 11 14 11 6 4 5 6 6 5 4 6 6 6 7 9 9 11 13 11 8 9 11 10 8 9 8 7 8 8 6 6 6 5 4 6 6 6 5 6 6 6 7 9 10 14 18 18 17 18 18 16 15 15 12 10 8 8 9 10 9 8 8 8 6 5 5 5 4 4 4 5 4 5 6 6 6 7 7 8
10 6 5 7 7 7 7 9 10 9 7 4 5 5 5 6 5 4 4 4 5 6 7 7 8 11 10 9 9 9 8 7 8 9 8 9 9 7 6 6 5 5 7 7 4 4 5 5 6 7 8 8 10 13 14 15 15 15 14 13 12 11 10 10 9 9 10 7 4 4 6 6 5 6 6 5 5 6 6 6 6 6 6 6 7 7 7
6 5 6 7 7 6 6 7 5 3 3 5 5 4 4 5 6 5 4 4 4 4 6 6 7 7 7 8 10 10 10 9 10 11 9 8 8 7 6 6 6 5 6 6 5 5 5 6 6 6 7 9 10 10 10 10 11 12 11 10 9 10 11 11 11 10 11 8 5 5 5 7 8 8 8 7 6 7 7 7 8 7 7 7 6 6 6
8 9 8 7 6 5 4 4 4 4 4 4 4 3 4 4 4 5 5 4 3 3 3 4 5 7 9 10 11 11 11 10 11 10 8 6 7 7 6 5 4 5 5 6 6 5 4 6 7 6 5 8 11 9 8 9 10 9 7 7 8 8 9 11 12 11 10 10 8 7 7 9 10 9 9 8 7 7 8 8 8 8 7 6 5 5 5
9 8 6 5 5 4 4 5 5 4 3 3 3 3 4 4 4 4 4 4 3 4 4 4 7 9 10 9 10 11 12 11 10 8 7 6 6 6 5 4 4 5 5 7 6 6 6 7 7 3 8 16 18 14 11 10 10 8 6 6 7 7 8 10 10 9 11 11 10 9 10 11 10 10 9 9 8 9 9 9 8 8 7 6 5 5 4
5 4 3 3 4 4 4 4 5 5 3 3 4 4 4 4 4 4 2 2 2 4 6 8 9 9 8 9 11 12 11 8 5 5 6 6 5 4 4 4 4 4 5 6 6 6 6 7 5 3 9 16 20 22 21 17 13 11 8 5 5 6 8 9 10 11 12 11 8 7 9 10 9 9 9 9 9 11 11 10 9 8 6 5 5 4 3
5 4 4 3 3 4 3 2 4 4 4 4 5 5 5 4 3 3 2 0 3 7 9 10 10 10 10 11 11 9 8 7 5 5 5 5 5 4 5 5 5 5 5 6 6 6 6 6 4 4 9 14 19 23 23 17 14 13 10 5 7 9 12 15 15 15 17 14 9 8 11 11 10 9 10 10 10 11 10 9 8 7 6 5 4 2 2
6 6 5 3 3 4 4 3 3 4 4 4 4 5 5 4 4 5 6 6 8 10 10 10 11 12 11 10 9 9 10 9 6 5 5 5 4 5 5 5 5 5 5 5 6 6 6 4 3 7 13 17 20 24 24 18 13 13 12 7 8 10 13 15 14 13 14 13 11 10 12 12 11 11 11 10 10 10 9 8 7 6 4 3 1 2 2
6 6 5 4 3 4 5 5 5 5 5 5 5 5 5 5 6 8 8 8 9 11 11 11 12 12 11 10 9 9 9 8 5 6 6 5 3 4 5 4 4 4 5 6 7 6 3 5 10 15 19 21 21 24 25 19 12 13 14 8 8 11 12 13 13 11 10 10 10 11 12 12 11 12 11 10 10 10 9 8 7 5 3 2 0 1 1
6 5 4 4 3 3 5 6 7 7 7 6 5 5 6 7 8 8 8 8 9 10 11 11 11 9 9 9 8 7 7 6 5 6 6 4 3 4 4 4 4 5 4 5 6 4 5 10 17 21 22 22 22 24 26 21 13 12 12 7 8 10 10 11 13 13 13 12 11 12 12 11 11 11 10 10 10 9 7 7 6 4 2 1 1 1 0
6 5 4 4 4 5 6 7 6 7 7 6 6 6 6 7 8 9 8 8 9 10 10 10 10 8 7 7 7 6 6 5 3 3 3 3 3 3 3 4 6 5 2 2 5 7 11 16 21 23 23 21 20 22 24 22 17 14 11 4 7 9 10 12 13 13 13 13 12 12 12 12 11 10 9 8 7 6 4 3 2 1 1 1 1 1 2
6 5 6 6 5 5 7 7 6 5 5 6 7 6 6 7 8 8 6 7 9 10 10 10 9 6 5 5 5 5 4 3 2 3 5 4 4 4 4 6 6 4 3 5 9 13 17 20 22 23 23 21 20 21 23 22 19 16 10 2 8 9 11 14 15 13 13 13 12 12 11 10 9 8 7 6 5 4 3 2 2 3 4 4 3 3 3
5 5 7 9 8 7 6 5 5 5 5 5 5 5 5 7 8 7 6 6 8 9 8 7 5 4 4 5 4 4 4 3 3 5 6 5 3 4 6 6 5 4 8 13 17 19 20 21 21 22 22 22 20 21 23 22 18 14 10 6 10 12 12 14 14 13 12 12 12 10 9 8 8 7 6 5 5 5 5 4 5 6 5 5 5 5 5
6 5 6 8 10 10 9 8 7 7 6 6 6 6 6 7 8 8 7 7 8 8 7 6 5 4 4 4 3 4 5 5 5 6 6 5 3 3 6 8 9 11 16 21 23 22 21 21 21 21 21 22 21 22 22 20 17 15 13 9 11 13 12 12 12 12 12 12 11 10 9 8 7 6 6 6 6 6 6 6 7 6 6 6 7 7 7
Wind_Direction
353 351 350 351 354 355 354 348 348 353 356 360 4 7 342 315 331 306 298 320 337 264 276 297 272 283 321 326 326 324 317 312 323 331 334 348 358 283 258 240 262 267 266 283 293 284 282 307 350 233 216 197 88 182 187 203 225 231 239 215 183 174 241 189 170 174 175 179 189 197 210 217 211 204 204 202 201 204 210 206 195 203 205 197 203 205 159
352 351 349 351 353 357 356 350 351 355 356 0 3 1 334 310 305 280 289 315 325 278 308 336 322 316 324 323 324 323 318 320 330 335 336 342 54 278 297 258 251 274 273 280 290 290 297 332 40 227 217 175 144 183 188 205 230 224 266 267 140 127 250 191 163 174 175 175 185 189 202 212 210 206 206 207 206 205 216 222 202 212 213 197 201 201 158
352 349 348 351 353 355 359 356 354 355 359 2 359 341 321 308 301 307 289 268 270 278 292 310 312 321 325 323 323 322 322 335 342 338 334 343 123 185 298 291 227 275 287 282 283 284 272 168 235 230 203 159 162 192 189 201 224 223 291 317 354 74 272 227 171 177 168 174 188 181 189 202 208 212 208 205 206 205 213 219 203 212 208 194 199 191 140
350 347 348 352 352 354 359 0 358 359 1 6 9 346 322 317 323 345 330 276 264 272 263 277 314 328 328 322 322 326 330 340 345 341 339 352 46 181 241 290 239 265 282 283 283 264 203 193 237 216 204 170 177 196 190 200 222 222 316 293 291 296 281 295 297 213 176 182 191 185 189 196 198 207 207 205 207 207 208 213 207 207 204 199 194 142 133
349 346 348 353 353 354 356 360 5 5 4 15 19 351 320 321 324 348 342 309 287 298 306 330 338 326 320 319 321 328 331 336 344 344 343 348 346 206 183 196 250 256 260 278 286 261 210 207 214 210 223 194 170 184 189 200 218 248 307 254 260 289 244 227 299 283 254 218 193 186 189 193 196 203 203 202 210 212 209 212 214 211 209 206 189 143 140
347 347 350 353 354 354 353 358 6 7 14 30 20 352 344 356 337 350 360 318 291 322 329 331 329 318 315 319 321 327 332 336 343 341 329 335 345 353 179 200 222 231 241 274 277 225 174 177 214 229 238 188 163 174 192 202 208 227 253 241 242 292 264 214 237 258 272 320 220 194 191 190 193 201 202 202 209 214 213 212 210 208 210 207 191 168 154
344 347 352 354 354 354 354 358 4 9 21 36 28 11 15 11 342 348 359 320 293 304 314 317 319 321 329 333 329 330 331 333 337 333 326 330 347 359 338 307 299 234 226 248 261 217 164 172 212 235 242 207 175 172 192 205 200 208 236 248 245 267 281 265 257 244 213 217 229 215 204 198 197 199 201 202 203 207 216 216 211 210 218 230 217 196 190
342 345 351 355 354 354 356 360 3 10 25 39 37 27 20 14 353 337 334 317 298 301 316 323 318 327 351 350 336 330 327 329 332 330 325 321 333 350 331 319 337 335 212 219 239 248 273 232 211 218 225 220 199 181 189 205 200 202 224 251 251 254 297 301 279 258 228 220 219 220 214 210 208 202 198 201 202 205 213 216 216 217 221 242 251 225 207
337 342 350 355 355 355 359 3 5 11 26 35 30 27 22 9 347 329 325 315 304 308 325 332 326 338 355 345 335 328 322 325 326 323 319 308 320 337 325 320 335 334 197 222 254 266 275 266 242 225 225 228 226 211 213 217 201 202 225 246 236 235 273 282 257 235 218 202 206 225 226 224 224 213 203 201 201 203 209 210 212 217 219 228 239 232 212
331 338 348 353 355 356 359 5 8 14 26 28 20 20 13 359 348 342 327 304 301 314 325 333 339 347 344 335 331 322 316 320 323 325 321 310 320 330 325 325 338 178 197 314 306 281 262 248 250 249 238 243 253 252 265 268 224 197 216 242 243 250 267 283 280 276 240 192 198 225 225 221 224 219 212 208 203 202 205 206 207 213 221 225 226 230 223
325 333 345 350 352 355 358 3 10 18 27 23 14 11 4 358 348 338 330 307 309 323 330 338 346 343 333 332 330 321 318 322 324 324 317 314 324 332 329 331 343 359 354 344 319 281 250 237 242 253 251 251 253 249 258 268 239 194 205 231 251 277 295 301 297 290 263 246 249 236 222 218 212 202 205 211 211 206 204 206 204 207 215 223 231 243 245
318 327 340 346 346 350 356 1 8 19 27 24 13 359 352 356 349 338 336 315 308 323 329 330 336 338 334 331 328 322 320 320 317 313 310 313 323 331 334 338 348 352 346 340 326 267 217 221 234 244 246 245 242 234 238 247 218 189 207 240 272 297 311 305 295 288 275 281 282 240 220 206 155 168 194 203 211 211 210 210 206 205 211 217 230 246 251
310 320 332 340 340 344 354 2 5 9 17 25 16 344 341 356 357 346 338 316 305 325 324 318 329 338 336 330 325 321 320 320 317 314 313 315 324 333 341 347 347 340 336 332 324 259 204 202 214 228 227 225 229 228 226 228 209 192 207 242 301 320 316 301 299 295 293 295 257 239 232 115 120 150 201 201 202 206 212 215 211 209 209 213 224 239 248
299 310 322 330 334 340 350 359 360 357 1 13 10 342 339 352 356 348 339 323 311 313 308 310 332 338 334 328 326 326 328 329 330 328 324 326 333 339 346 351 346 338 334 330 320 295 231 196 185 196 197 194 209 218 214 217 213 201 213 235 312 1 322 309 311 298 298 307 269 263 299 186 156 148 201 205 205 206 207 214 219 215 212 216 224 233 239
291 300 312 320 329 340 348 351 350 347 348 353 355 342 326 324 336 343 333 319 309 308 315 338 341 333 330 328 330 334 334 337 339 331 327 334 341 342 348 353 346 338 340 339 322 292 262 223 177 167 180 180 189 202 198 205 209 198 210 233 81 73 311 297 305 295 299 313 288 263 262 210 127 72 55 293 316 244 210 214 225 217 216 222 224 226 230
289 292 304 315 325 337 345 345 340 337 340 345 347 339 315 309 320 334 328 319 304 299 323 338 332 327 324 324 332 341 339 339 338 328 327 338 339 340 349 350 343 343 354 353 300 275 275 243 194 175 194 180 176 199 191 191 209 194 188 186 140 136 253 268 269 278 287 294 286 274 253 98 46 4 339 309 321 277 211 220 227 212 213 222 224 224 225
289 289 298 312 320 329 336 339 334 329 335 343 342 334 316 306 312 325 322 311 295 283 294 317 327 327 324 321 329 336 333 329 329 325 321 324 328 338 344 341 340 354 5 359 246 279 285 247 222 206 212 191 176 198 197 198 215 193 176 185 195 200 234 258 262 273 281 283 282 272 112 71 332 317 322 298 230 209 204 212 219 215 215 217 218 221 219
289 288 294 304 308 323 334 339 337 326 325 332 333 326 314 305 308 319 314 306 300 285 286 311 322 316 314 315 314 319 325 323 320 321 312 309 328 341 334 328 340 3 1 354 328 340 309 270 250 193 239 248 223 192 192 207 215 193 183 211 224 210 219 249 259 270 280 281 275 257 119 76 316 301 310 332 178 190 197 205 314 329 273 213 207 213 214
291 289 290 294 298 318 332 334 333 325 318 320 323 320 311 304 305 311 308 300 295 288 291 302 306 300 304 308 301 304 316 316 314 324 316 312 341 337 323 313 359 2 355 359 358 351 329 315 326 19 259 282 274 259 233 220 219 194 187 214 224 208 221 246 246 254 270 274 266 258 114 62 321 310 304 177 178 180 187 320 328 326 335 13 182 205 207
293 290 285 287 291 309 324 324 323 320 313 313 319 315 307 303 301 303 304 298 294 294 295 297 297 298 302 299 292 295 304 306 313 324 312 308 332 333 324 341 8 349 349 3 356 350 339 335 339 343 349 339 286 278 294 289 276 262 226 221 211 187 238 255 246 255 269 261 260 263 136 16 334 331 319 178 207 333 336 335 330 326 345 24 62 183 200
293 289 282 281 284 297 313 315 315 315 310 309 317 313 305 302 300 299 302 301 295 292 293 297 302 302 298 288 282 280 279 285 299 310 306 304 316 325 327 330 332 336 353 351 341 347 342 334 339 334 322 316 292 283 295 292 278 267 254 250 142 126 240 272 295 328 318 295 293 309 314 334 341 344 349 26 17 338 314 315 335 347 343 343 156 168 195
291 288 280 278 280 290 303 307 310 312 307 308 316 314 303 298 298 293 295 295 286 280 286 293 295 294 293 290 282 270 263 272 284 292 296 298 300 300 295 300 311 328 349 338 324 330 334 325 326 332 322 314 319 313 291 271 278 279 262 254 203 177 205 259 295 285 283 304 337 51 184 319 1 6 347 360 25 351 327 335 357 356 348 359 114 139 159
289 288 281 276 278 286 294 301 306 307 304 307 312 309 296 293 295 292 290 289 285 285 290 291 288 286 293 304 296 273 266 271 274 275 277 283 292 294 285 289 313 323 327 352 344 324 322 322 317 320 317 307 312 312 298 282 294 321 295 288 267 206 190 188 266 259 264 300 330 354 12 3 34 40 3 11 37 32 5 6 19 20 16 34 90 121 130
288 286 280 276 278 284 291 298 302 301 302 306 309 305 296 291 295 300 298 292 292 297 298 291 284 287 296 305 303 287 278 274 272 272 265 258 272 285 280 301 339 326 301 322 329 308 300 306 299 291 296 296 295 310 313 302 318 320 296 281 259 182 184 208 244 256 265 284 341 15 22 358 12 39 39 40 48 45 25 17 22 29 33 41 64 93 108
284 278 274 274 277 283 291 295 296 298 301 304 305 304 297 291 291 295 292 288 293 299 298 292 292 294 297 301 300 293 287 278 270 267 257 247 250 259 269 291 316 310 294 301 307 296 290 296 288 282 291 298 298 309 314 289 310 323 306 273 263 257 274 273 257 259 292 38 84 105 86 6 355 27 41 41 46 45 33 24 26 33 39 42 46 56 69
277 271 269 271 277 287 293 293 293 298 301 300 299 298 292 288 287 280 277 285 291 285 272 279 293 302 308 308 304 296 287 276 267 264 259 253 252 255 264 277 288 289 285 286 283 278 279 282 282 284 289 296 305 303 279 270 286 294 283 289 320 318 291 279 274 267 19 46 30 148 134 99 11 51 50 34 33 41 40 34 31 31 34 39 41 43 46
268 264 266 271 281 288 289 288 292 297 297 294 295 295 286 281 280 274 269 279 288 279 269 282 299 308 311 310 309 302 288 280 274 271 266 261 260 258 258 264 270 276 280 278 270 266 265 263 267 269 273 289 301 295 281 276 279 283 282 292 317 315 295 291 297 292 40 12 327 321 81 105 325 24 19 9 20 40 47 43 40 38 33 30 34 38 40
258 260 266 273 280 282 283 289 294 295 294 293 294 292 286 282 280 272 260 254 258 272 287 295 299 303 306 308 310 306 295 286 281 277 272 269 268 262 256 256 258 263 268 270 269 265 257 261 271 268 272 293 300 288 282 283 274 271 279 280 285 287 276 288 306 320 113 220 277 312 328 303 308 341 339 339 354 27 52 49 44 46 43 34 32 32 34
253 259 265 271 277 280 286 293 296 294 296 301 301 299 296 289 275 264 256 245 247 273 291 297 297 296 298 303 306 306 300 290 284 280 277 275 272 266 259 253 249 250 255 260 265 267 263 267 274 273 274 291 301 294 290 290 279 275 289 313 330 316 279 271 292 308 290 155 155 170 249 261 248 338 322 306 311 349 51 57 46 46 48 46 44 35 26
250 258 265 271 277 282 288 295 298 300 304 308 308 304 299 274 232 233 236 226 250 289 297 299 297 296 298 301 302 302 301 298 294 290 284 279 274 268 262 254 247 245 247 249 253 260 265 267 269 267 266 269 274 281 286 282 279 287 297 329 334 308 290 285 297 306 310 42 112 145 229 250 228 167 157 246 273 302 54 59 49 50 51 47 52 52 35
250 259 267 272 276 282 290 296 299 302 306 309 301 291 290 273 232 240 229 224 261 294 296 289 290 295 298 298 297 299 302 301 300 296 287 277 272 266 261 257 251 243 239 243 249 254 260 265 269 270 267 260 251 258 278 278 275 287 294 285 263 283 291 298 306 304 305 319 34 148 181 211 210 189 160 155 232 224 91 77 62 60 60 53 55 59 51
253 262 268 271 275 284 294 298 298 298 296 280 254 255 266 274 270 265 262 265 279 288 285 285 292 297 302 307 306 306 305 303 301 299 288 277 278 274 263 258 256 247 239 243 250 253 253 253 256 263 265 259 249 254 269 269 267 277 291 297 297 287 283 289 299 304 303 297 274 186 182 189 188 190 194 161 116 96 96 97 88 75 72 69 65 63 57
255 264 267 271 280 290 296 298 298 294 284 269 262 269 281 280 263 256 259 265 270 271 267 279 295 292 296 306 308 313 328 327 314 307 297 289 294 291 275 264 258 249 238 235 240 249 252 248 248 254 255 250 249 257 262 262 268 276 284 292 295 285 274 275 285 286 277 273 272 242 220 199 174 171 179 163 132 104 88 102 109 99 92 96 96 94 89
257 265 269 275 286 296 298 298 297 292 284 278 278 284 288 283 273 263 248 241 251 257 251 254 275 285 296 301 302 322 353 339 320 312 310 305 299 292 283 272 259 244 231 230 236 246 254 252 251 255 253 244 240 250 259 260 266 274 279 282 283 277 271 273 277 271 260 258 253 233 230 221 187 178 175 160 140 123 107 119 129 123 115 115 112 109 112
254 262 271 283 294 299 298 297 294 283 275 274 271 266 266 270 274 263 232 229 242 250 244 236 246 276 303 305 301 331 345 332 317 314 314 306 296 289 283 276 263 247 230 229 239 247 250 250 249 251 252 247 240 243 252 258 264 271 274 274 273 270 268 272 272 251 238 252 255 248 243 237 224 210 185 158 143 134 124 115 111 120 126 120 106 94 94
255 264 275 291 302 304 298 293 286 272 262 253 251 258 267 277 278 260 251 254 252 253 267 272 261 270 295 296 298 321 331 324 319 321 315 306 302 297 289 278 269 261 245 233 242 252 250 248 249 248 246 244 241 243 251 259 267 272 272 271 270 268 272 276 246 188 220 251 252 253 258 243 223 219 201 166 146 135 132 113 90 106 121 108 95 86 77
256 267 279 296 307 301 288 274 258 252 248 242 247 264 279 287 279 262 255 258 254 249 255 263 263 270 279 282 294 316 323 320 323 325 318 312 312 303 290 277 269 272 263 244 243 256 253 247 246 246 244 245 251 256 258 260 263 266 269 271 268 266 274 274 189 153 186 257 254 248 251 235 210 210 203 171 143 121 118 115 97 101 105 95 86 82 76
259 271 282 293 286 277 275 256 236 242 254 262 271 277 269 254 252 246 236 241 250 247 243 246 258 265 266 269 284 298 308 316 318 315 315 319 318 305 293 288 288 292 283 265 260 262 255 244 242 249 250 253 258 260 261 262 262 263 266 269 268 264 266 263 214 172 184 225 236 234 233 224 212 207 190 166 149 130 119 110 93 89 90 86 81 80 77
262 268 268 255 249 260 275 265 253 260 274 287 284 266 238 214 221 236 222 219 232 237 232 236 250 257 257 266 282 287 294 305 305 304 313 319 316 309 308 308 308 298 283 275 276 275 257 243 247 252 251 254 257 258 259 261 261 262 261 260 261 260 256 252 236 214 208 216 223 218 213 213 209 194 183 183 171 141 125 117 107 98 93 92 89 83 77
254 245 233 239 243 249 268 276 275 277 278 254 233 244 244 228 224 224 215 221 229 221 216 233 254 257 256 263 278 288 294 294 293 301 310 307 301 300 298 297 305 300 278 269 277 288 272 262 257 254 255 259 260 260 261 259 258 260 261 258 257 259 252 240 231 223 220 221 206 172 180 201 210 199 197 199 178 155 144 137 128 118 111 110 104 88 76
221 209 215 229 236 241 261 278 279 263 245 237 231 237 243 234 228 226 233 256 259 225 217 244 267 268 265 273 284 296 304 301 295 294 293 292 296 296 285 286 297 288 267 270 288 288 275 271 265 253 254 264 266 265 268 267 261 259 261 258 254 252 244 232 222 215 210 200 166 134 162 191 196 193 197 199 183 164 156 147 139 130 123 119 111 91 77
205 206 211 226 245 255 260 258 236 220 232 241 235 235 237 232 231 230 227 244 281 274 233 246 278 294 296 292 289 293 300 302 299 291 282 286 297 291 280 285 285 262 265 297 306 286 264 267 262 256 289 311 299 278 264 269 273 268 259 249 242 238 231 224 219 210 194 178 159 151 174 190 190 190 196 197 183 167 159 152 145 136 125 117 107 90 79
214 214 219 241 254 245 236 229 214 203 215 229 223 234 239 226 223 234 227 224 258 277 276 286 299 300 297 292 291 294 295 294 292 284 277 284 294 288 278 273 265 264 294 314 299 265 255 258 254 282 356 352 345 338 328 317 309 299 273 243 230 225 219 213 203 184 169 164 157 158 174 189 196 198 194 184 171 163 157 149 142 136 126 117 107 91 72
193 194 214 244 236 214 210 208 190 183 211 229 213 225 243 229 220 235 230 172 206 262 285 301 306 305 305 306 305 303 296 287 275 269 273 279 283 278 270 270 274 289 308 302 277 261 261 257 252 319 354 352 351 349 344 335 322 307 287 246 205 191 184 176 164 155 157 165 176 184 183 183 185 184 178 169 160 156 149 142 138 136 126 115 107 88 48
173 176 181 210 219 201 192 185 182 195 230 236 220 235 263 260 243 256 284 314 280 283 292 301 303 299 300 303 302 295 287 283 274 266 273 281 279 269 266 276 291 300 296 282 271 267 263 255 258 334 347 345 345 343 338 331 320 307 288 230 171 157 155 153 147 142 143 147 157 181 191 193 188 172 161 155 151 148 143 139 139 136 126 115 100 62 27
201 204 200 219 236 212 202 204 205 212 234 247 245 257 274 271 268 286 299 302 296 292 296 302 302 297 296 301 298 285 279 281 277 267 270 274 274 275 279 285 288 283 276 275 274 270 265 272 326 355 345 337 336 336 335 333 323 303 282 233 170 154 159 160 153 146 147 151 157 168 186 197 188 163 148 144 141 137 135 133 132 133 136 134 92 26 36
210 215 217 238 245 214 206 222 241 247 263 275 268 261 266 266 268 277 284 289 293 295 297 299 298 293 292 294 290 280 276 274 268 269 274 270 265 277 283 280 272 264 263 275 281 277 285 336 350 346 334 326 328 333 335 333 321 298 284 251 177 158 160 160 155 157 167 174 172 175 184 187 169 148 143 142 135 126 123 121 117 117 131 150 279 311 19
207 207 211 227 237 219 218 236 249 253 261 265 252 242 252 262 267 275 285 292 292 293 295 299 301 298 293 288 281 276 279 275 264 265 270 262 259 278 273 251 250 259 263 280 300 320 348 344 338 332 325 321 326 331 332 330 322 302 286 251 174 156 154 150 150 156 161 165 172 178 175 160 142 136 138 136 127 120 119 115 104 95 103 136 291 298 33
216 221 225 237 255 256 251 256 264 264 256 247 241 245 254 262 269 280 292 294 290 292 298 298 294 293 295 295 288 279 274 267 259 275 280 264 256 269 264 257 269 279 292 330 329 336 341 337 330 323 317 317 324 327 326 325 321 305 287 238 142 139 141 136 133 140 149 158 167 165 149 135 132 136 139 137 132 130 130 123 106 95 138 139 132 118 110
220 231 234 237 250 256 248 245 254 261 250 235 233 243 258 269 278 288 298 294 290 294 295 287 274 270 282 293 288 278 271 267 267 278 280 271 259 261 269 276 284 301 342 338 325 326 330 329 323 316 311 313 321 324 323 321 318 306 288 191 122 126 137 136 135 141 148 150 150 145 138 137 140 139 138 144 148 140 131 132 134 130 127 121 115 110 103
218 234 237 236 242 256 261 255 256 263 261 250 247 255 269 278 282 290 301 297 289 287 288 286 280 275 274 273 271 278 294 297 276 266 272 280 280 275 280 288 301 325 330 323 321 322 321 317 312 309 307 308 315 320 318 317 315 302 275 200 152 147 149 147 146 147 144 139 138 139 140 143 142 136 134 141 140 129 125 128 126 122 120 116 110 106 102
217 235 246 243 243 250 259 263 262 261 260 259 262 266 273 280 285 290 291 286 278 277 286 295 293 277 267 274 291 299 295 286 274 271 278 285 288 285 292 305 319 326 324 320 316 314 310 306 304 304 303 304 311 316 314 310 303 286 262 215 165 154 154 149 143 141 138 135 137 138 136 135 138 139 138 138 135 130 127 126 124 124 124 117 110 106 101